Location: Unspecified
(0.0000°N, 0.0000°E)
Time: 20:56:12
(UTC+02:00)

Daily predictions for brighter satellites

Satellite Brightness Start Highest point End
(mag) Time Altitude Azimuth Time Altitude Azimuth Time Altitude Azimuth
YAOGAN 1 3.2 20:05:27 10° S 20:09:44 63° WSW 20:14:00 10° NNW
SMAP 3.5 20:05:27 10° S 20:10:04 69° WSW 20:14:41 10° NNW
BLOCK DM-SL R/B 3.7 20:06:35 10° W 20:10:53 89° S 20:22:29 10° E
Cosmos 1269 Rocket 4.5 20:06:49 10° S 20:11:45 40° ESE 20:16:39 10° NNE
Cosmos 1953 3.2 20:09:24 10° SSE 20:12:54 29° E 20:16:22 10° NNE
Cosmos 1943 4.2 20:09:05 10° SSE 20:13:39 25° ESE 20:18:11 10° NE
Cosmos 1603 3.7 20:11:42 10° SSW 20:17:23 85° ESE 20:23:06 10° NNE
Cosmos 2278 Rocket 3.0 20:12:43 10° NNE 20:17:26 28° ENE 20:22:10 10° SE
Cosmos 1805 3.8 20:15:45 10° SSE 20:19:20 35° E 20:22:54 10° NNE
Hubble Space Telescope 2.1 20:24:01 10° SSW 20:27:29 26° SSE 20:30:24 13° E
deb Ariane 3.3 20:29:46 10° WNW 20:31:43 26° N 20:33:32 13° NE
Cosmos 2346 Rocket 4.4 20:26:08 10° N 20:32:05 62° E 20:38:04 10° SSE
Meteor 1-24 Rocket 4.0 20:27:18 10° NNE 20:32:16 38° E 20:37:10 10° SSE
IDEFIX/ARIANE 42P 3.5 20:28:12 10° S 20:33:16 53° WSW 20:38:19 10° NNW
Okean 3 Rocket 3.9 20:30:10 10° NNE 20:34:30 46° E 20:38:51 10° SSE
Meteor 2-5 Rocket 3.7 20:29:23 10° N 20:34:55 90° W 20:40:27 10° S
Cosmos 1378 4.0 20:33:45 10° NNE 20:36:56 27° E 20:40:10 10° SE
Cosmos 1437 3.0 20:35:07 10° N 20:38:15 46° E 20:41:25 10° SSE
Cosmos 1441 Rocket 3.3 20:35:22 10° N 20:39:05 78° W 20:42:53 10° S
Cosmos 2056 Rocket 4.4 20:36:20 10° NNE 20:40:53 28° ENE 20:45:23 10° SE
ARIANE 5 DEB (SYLDA) 3.4 20:28:44 10° W 20:41:27 89° S 20:45:09 19° E
Cosmos 1470 3.9 20:38:27 10° SSE 20:41:33 22° E 20:43:06 18° ENE
SJ-6B 3.1 20:40:47 10° SSE 20:44:23 40° ENE 20:48:02 10° N
Cosmos 2034 Rocket 3.9 20:38:26 10° S 20:44:38 85° E 20:50:52 10° N
Tiangong 2 3.3 20:46:00 10° N 20:47:05 13° NNE 20:47:05 13° NNE
Cosmos 158 Rocket 4.2 20:43:10 10° S 20:47:57 43° ESE 20:52:35 10° NNE
Cosmos 1371 Rocket 4.1 20:45:20 10° N 20:50:31 54° ENE 20:55:45 10° SSE
Delta 198 4.1 20:45:28 10° WNW 20:51:35 69° NNE 20:54:44 25° ESE
Cosmos 1707 3.9 20:49:14 10° NNW 20:52:55 45° W 20:56:39 10° SSW
Cosmos 1758 4.0 20:50:59 10° SSW 20:54:56 56° W 20:58:55 10° N
PSLV R/B 4.0 20:52:39 10° WNW 20:55:51 49° SW 20:58:02 19° SSE
Cosmos 1818 4.0 20:53:06 10° NNW 20:58:25 62° WSW 21:03:42 10° SSE
GMS 1 Rocket 4.5 21:00:01 10° WSW 21:03:50 61° NNW 21:05:20 34° NE
Cosmos 1484 Rocket 4.4 21:00:28 10° SSW 21:03:54 34° W 21:07:20 10° NW
Cosmos 1624 Rocket 3.9 21:02:44 10° N 21:07:51 66° ENE 21:13:00 10° SSE
Ariane H10 4.2 21:03:30 10° WSW 21:07:52 75° S 21:17:47 27° E
SAR-Lupe-1 4.2 21:04:49 10° S 21:08:22 71° WSW 21:11:53 10° NNW
Centaur D-1AR AC-46 4.1 21:05:07 10° WNW 21:08:48 85° NNE 21:10:28 37° ESE
Centaur D AC-25 4.0 21:07:26 10° SSW 21:10:42 17° SSE 21:11:04 17° SSE
Skynet4D Del rocket 4.0 21:07:46 10° WNW 21:13:01 56° SSW 21:15:51 27° SE
Cosmos 2251 Rocket 3.7 21:08:19 10° S 21:13:18 43° ESE 21:13:31 43° E
AVUM R/B 4.1 21:13:04 10° SSW 21:14:59 37° SSW 21:14:59 37° SSW
Sylda 4400 4.4 21:11:14 10° WSW 21:16:51 33° SSW 21:17:32 30° S
Cosmos 1766 Rocket 3.7 21:19:44 10° N 21:23:08 54° NNE 21:23:08 54° NNE
METEOR-M 4.0 21:21:16 10° SSE 21:26:38 88° ENE 21:31:59 10° NNW
SeaSat 1 3.8 21:23:27 10° N 21:27:57 37° WNW 21:32:28 10° SW
CENTAUR R/B 4.5 21:28:44 10° WSW 21:33:05 23° WNW 21:37:36 10° NNW
Cosmos 1842 Rocket 4.3 21:30:08 10° SSW 21:34:21 50° W 21:38:31 10° N
Cosmos 1076 Rocket 4.3 21:32:12 10° NNW 21:36:26 51° W 21:40:41 10° S
Aurora 2 Rocket 3.7 21:37:25 10° W 21:41:49 45° NNW 21:42:17 44° N
Resurs 01 Rocket 2.9 21:52:51 38° WNW 21:52:51 38° WNW 21:56:05 10° NNW
Spot 2 Rocket 4.2 21:47:33 10° S 21:52:28 51° WSW 21:57:20 10° NNW
Hubble Space Telescope 3.5 22:04:42 10° WSW 22:05:49 17° W 22:05:49 17° W
